Location: Summit Observatory
(39.5293°N, 75.7290°W)
Time: 05:33:26
(UTC-05:00)

Amateur Radio Satellites - All Passes

Search period start: 07 December 2016 05:03
Search period end: 08 December 2016 05:03
Location: Summit Observatory, 39.5293°N, 75.7290°W

Satellite Date Start Highest point End Downlink Frequencies (MHz)
Time Altitude Azimuth
DOVE 4 07 Dec 05:04:36 05:05:17 10° 87° (E) 05:05:58 437.250
RS-15 07 Dec 05:16:36 05:24:09 20° 98° (E) 05:31:51 29.354- 29.394
YUBILEINY 07 Dec 05:22:37 05:30:58 44° 75° (ENE) 05:39:15 435.215
CUTE-I 07 Dec 05:24:26 05:28:21 20° 93° (E) 05:32:13 437.470
BRITE-PL 07 Dec 05:25:01 05:30:31 85° 284° (WNW) 05:36:13 437.365/2234.400
BEESAT 3 07 Dec 05:25:32 05:29:02 31° 308° (NW) 05:32:36 437.485
AIST 1 07 Dec 05:28:09 05:29:26 11° 69° (ENE) 05:30:43
HORYU 2 07 Dec 05:30:40 05:35:08 82° 105° (ESE) 05:39:32 437.375
NOAA 18 07 Dec 05:42:56 05:46:48 19° 93° (E) 05:50:38 137.9125
NOAA 15 07 Dec 05:43:00 05:47:47 34° 97° (E) 05:52:32 137.62
LilacSat-2 07 Dec 05:47:24 05:50:50 33° 97° (E) 05:54:15 437.200
CUBESAT XI-V 07 Dec 05:49:02 05:49:38 10° 271° (W) 05:50:14 437.345
Cosmos 2504 07 Dec 05:49:26 05:57:05 32° 70° (ENE) 06:04:18 435.465 / 435.565
Cubesat XI-IV 07 Dec 05:50:01 05:54:54 35° 97° (E) 05:59:44 437.490
Cosmos 2491 07 Dec 05:50:25 05:58:00 34° 85° (E) 06:05:32 435.465 / 435.565
BEESAT 2 07 Dec 05:57:00 06:00:34 32° 308° (NW) 06:04:11 435.950
SO-50 07 Dec 06:06:44 06:09:11 15° 252° (WSW) 06:11:37 436.795
CINEMA 3 07 Dec 06:13:59 06:15:40 12° 88° (E) 06:17:20 145.822/145.860
STRAND 1 07 Dec 06:33:26 06:38:34 84° 76° (ENE) 06:43:44 437.568
GOMX 1 07 Dec 06:33:42 06:38:54 45° 289° (WNW) 06:44:05 467.674
AO-7 07 Dec 06:34:47 06:38:00 13° 315° (NW) 06:41:13 29.400- 29.500
DOVE 4 07 Dec 06:38:19 06:43:39 88° 281° (W) 06:48:46 437.250
AIST 2 07 Dec 06:56:47 07:00:07 24° 112° (ESE) 07:03:30 435.215
AIST 1 07 Dec 07:03:06 07:07:28 62° 266° (W) 07:11:48
CUTE-I 07 Dec 07:03:30 07:08:36 48° 289° (WNW) 07:13:40 437.470
BRITE-PL 07 Dec 07:06:10 07:08:13 12° 299° (WNW) 07:10:17 437.365/2234.400
YUBILEINY 07 Dec 07:19:38 07:27:36 40° 274° (W) 07:35:35 435.215
NOAA 18 07 Dec 07:22:22 07:27:46 54° 289° (WNW) 07:33:07 137.9125
LilacSat-2 07 Dec 07:22:33 07:24:51 16° 293° (WNW) 07:27:08 437.200
RS-15 07 Dec 07:22:54 07:34:38 84° 118° (ESE) 07:46:57 29.354- 29.394
NOAA 15 07 Dec 07:22:55 07:27:25 29° 293° (WNW) 07:31:55 137.62
Cubesat XI-IV 07 Dec 07:30:19 07:34:49 28° 294° (WNW) 07:39:18 437.490
CUTE 1.7 + AOD 2 07 Dec 07:35:33 07:39:42 53° 100° (E) 07:43:48 437.475
HO-68 07 Dec 07:39:41 07:46:48 59° 102° (ESE) 07:53:53 435.675
Cosmos 2504 07 Dec 07:42:23 07:50:50 55° 270° (W) 07:58:49 435.465 / 435.565
Cosmos 2491 07 Dec 07:46:01 07:54:27 50° 284° (WNW) 08:02:56 435.465 / 435.565
CINEMA 3 07 Dec 07:48:32 07:53:18 65° 285° (WNW) 07:57:49 145.822/145.860
AAUSAT CUBESAT 2 07 Dec 07:53:39 07:57:14 28° 96° (E) 08:00:50 437.432
CANX-2 07 Dec 07:53:46 07:58:00 78° 284° (WNW) 08:02:13 2200.000
CUBEBUG 2 07 Dec 07:58:36 08:02:40 37° 97° (E) 08:06:36 437.445
PRISM 07 Dec 08:03:50 08:07:42 46° 73° (ENE) 08:11:38 437.425
SEEDS 07 Dec 08:16:39 08:20:50 74° 285° (WNW) 08:25:01 437.485
Oscar 11 07 Dec 08:17:15 08:20:28 20° 94° (E) 08:23:40 145.826/435.025
STRAND 1 07 Dec 08:17:40 08:18:21 10° 271° (W) 08:19:00 437.568
DOVE 4 07 Dec 08:18:45 08:20:26 12° 300° (WNW) 08:22:07 437.250
COMPASS 1 07 Dec 08:24:43 08:28:53 89° 103° (ESE) 08:33:04 437.405
AIST 2 07 Dec 08:34:50 08:38:28 30° 309° (NW) 08:42:09 435.215
UWE-3 07 Dec 08:38:18 08:42:35 68° 101° (E) 08:46:44 435.000/436.395/437.385
DELFI C3 07 Dec 08:42:55 08:44:41 13° 92° (E) 08:46:27 145.870
JAS-2 07 Dec 08:57:07 08:59:25 12° 60° (ENE) 09:01:38 435.910
UNISAT 6 07 Dec 08:58:35 09:03:00 42° 72° (ENE) 09:07:23 437.425
CUSAT 1 07 Dec 09:09:31 09:12:43 72° 98° (E) 09:15:27 437.405
CUTE 1.7 + AOD 2 07 Dec 09:13:07 09:15:03 13° 295° (WNW) 09:16:59 437.475
ZACube-1 07 Dec 09:16:34 09:20:47 72° 285° (WNW) 09:24:55 437.345
FUNcube-1 07 Dec 09:23:33 09:27:44 65° 285° (WNW) 09:31:49 145.935
TIGRISAT 07 Dec 09:27:51 09:32:33 82° 75° (ENE) 09:37:13 435.000
HO-68 07 Dec 09:28:14 09:34:02 27° 300° (WNW) 09:39:49 435.675
AAUSAT CUBESAT 2 07 Dec 09:29:21 09:32:33 22° 292° (WNW) 09:35:45 437.432
ANTELSAT 07 Dec 09:29:40 09:34:21 90° 164° (SSE) 09:39:02 437.575/2403.000
QB50P2 07 Dec 09:30:43 09:31:12 10° 62° (ENE) 09:31:42 145.880/145.840
PCSat 07 Dec 09:33:23 09:34:11 10° 101° (ESE) 09:34:58 145.827
CUBEBUG 2 07 Dec 09:35:59 09:38:59 18° 294° (WNW) 09:41:55 437.445
RS-15 07 Dec 09:38:05 09:48:41 35° 324° (NW) 09:59:40 29.354- 29.394
PRISM 07 Dec 09:41:24 09:43:15 13° 268° (W) 09:45:07 437.425
QB50P1 07 Dec 09:42:11 09:44:11 13° 64° (ENE) 09:46:13 145.935-145.965
DUCHIFAT 1 07 Dec 09:44:03 09:45:32 12° 63° (ENE) 09:47:01 145.980
Oscar 11 07 Dec 09:52:47 09:56:38 32° 289° (WNW) 10:00:27 145.826/435.025
GONETS M04 07 Dec 10:01:35 10:07:14 18° 63° (ENE) 10:12:51
POPSAT HIP 1 07 Dec 10:02:25 10:05:40 21° 68° (ENE) 10:08:56 437.405
DANDE 07 Dec 10:06:42 10:11:25 89° 91° (E) 10:14:58 436.750
AO-85 07 Dec 10:08:22 10:12:08 40° 53° (NE) 10:15:48 145.980
DELFI C3 07 Dec 10:15:54 10:19:43 44° 287° (WNW) 10:23:31 145.870
UWE-3 07 Dec 10:17:35 10:18:24 10° 298° (WNW) 10:19:14 435.000/436.395/437.385
ESTCUBE 1 07 Dec 10:32:52 10:35:53 17° 93° (E) 10:38:52 437.505/2401.250
HUMSAT D 07 Dec 10:32:54 10:36:54 59° 285° (WNW) 10:40:54 437.325/437.525
BUGSAT 1 07 Dec 10:34:15 10:36:52 16° 65° (ENE) 10:39:30 437.445
UNISAT 6 07 Dec 10:36:36 10:39:51 18° 267° (W) 10:43:06 437.425
JAS-2 07 Dec 10:37:18 10:43:50 85° 75° (ENE) 10:49:37 435.910
Cosmos 2499 07 Dec 10:38:07 10:45:43 34° 71° (ENE) 10:52:48 435.465 / 435.565
NANOSAT C BR1 07 Dec 10:54:53 10:59:08 80° 78° (ENE) 11:03:25 145.865
CUBEBUG 1 07 Dec 10:56:06 10:59:13 19° 93° (E) 11:02:19 437.445
QB50P2 07 Dec 11:02:06 11:06:22 73° 258° (WSW) 11:10:40 145.880/145.840
POLYITAN 1 07 Dec 11:02:34 11:06:52 77° 259° (W) 11:11:10 437.675
50 SAT 07 Dec 11:08:21 11:08:53 10° 92° (E) 11:09:26 437.505
VELOX 1 07 Dec 11:10:33 11:13:33 18° 93° (E) 11:16:32 145.980
PCSat 07 Dec 11:11:17 11:16:42 88° 118° (ESE) 11:22:10 145.827
Oscar 19 07 Dec 11:12:35 11:14:41 13° 60° (ENE) 11:16:48 437.125/150
QB50P1 07 Dec 11:15:17 11:19:29 55° 260° (W) 11:23:41 145.935-145.965
DUCHIFAT 1 07 Dec 11:16:26 11:20:39 63° 259° (W) 11:24:54 145.980
DX 1 07 Dec 11:20:48 11:22:03 11° 91° (E) 11:23:18 434.975-435.025
SPROUT 07 Dec 11:33:13 11:36:24 20° 94° (E) 11:39:34 437.525
POPSAT HIP 1 07 Dec 11:37:25 11:41:14 31° 263° (W) 11:45:05 437.405
AO-85 07 Dec 11:49:53 11:52:09 15° 250° (WSW) 11:54:23 145.980
GONETS M04 07 Dec 11:56:30 12:05:16 89° 253° (WSW) 12:14:01
RS-15 07 Dec 11:58:11 12:06:37 20° 359° (N) 12:15:06 29.354- 29.394
BEESAT 3 07 Dec 12:06:53 12:08:35 12° 42° (NE) 12:10:16 437.485
BUGSAT 1 07 Dec 12:07:51 12:11:52 43° 261° (W) 12:15:55 437.445
ESTCUBE 1 07 Dec 12:08:35 12:12:50 42° 288° (WNW) 12:17:05 437.505/2401.250
AISAT 07 Dec 12:08:54 12:13:24 83° 100° (E) 12:17:52 437.250
JUGNU 07 Dec 12:09:09 12:10:17 11° 179° (S) 12:11:25 437.505
JAS-2 07 Dec 12:26:36 12:29:19 13° 269° (W) 12:31:57 435.910
Cosmos 2499 07 Dec 12:30:59 12:39:05 50° 271° (W) 12:46:36 435.465 / 435.565
CUBEBUG 1 07 Dec 12:31:30 12:35:37 38° 289° (WNW) 12:39:42 437.445
BEESAT 2 07 Dec 12:39:00 12:40:48 13° 42° (NE) 12:42:34 435.950
50 SAT 07 Dec 12:39:00 12:42:24 42° 286° (WNW) 12:45:46 437.505
VELOX 1 07 Dec 12:45:57 12:50:09 40° 289° (WNW) 12:54:19 145.980
Oscar 19 07 Dec 12:48:10 12:53:17 81° 256° (WSW) 12:58:27 437.125/150
TISAT 1 07 Dec 12:49:53 12:53:12 22° 95° (E) 12:56:30 437.305
DX 1 07 Dec 12:54:16 12:58:37 62° 286° (WNW) 13:02:56 434.975-435.025
Gurwin Techsat 1B 07 Dec 12:55:45 13:00:58 61° 73° (ENE) 13:06:13 435.225
PCSat 07 Dec 12:57:37 13:00:51 16° 317° (NW) 13:04:05 145.827
UKube-1 07 Dec 12:58:29 13:02:51 76° 284° (WNW) 13:07:09 .
SPROUT 07 Dec 13:08:32 13:12:22 32° 290° (WNW) 13:16:11 437.525
ITAMSAT 1 07 Dec 13:20:55 13:25:03 24° 65° (ENE) 13:29:11 435.822/435.867
SWISSCUBE 07 Dec 13:26:14 13:28:11 12° 91° (E) 13:30:08 437.505
BEESAT 07 Dec 13:30:14 13:32:03 12° 91° (E) 13:33:54 436.000
AUBIESAT-1 07 Dec 13:39:59 13:40:53 11° 94° (E) 13:41:47 437.475
BEESAT 3 07 Dec 13:42:43 13:46:42 76° 242° (WSW) 13:50:39 437.485
AO-7 07 Dec 13:44:42 13:52:14 41° 61° (ENE) 13:59:48 29.400- 29.500
M-CUBED/EXP-1 PRIME 07 Dec 13:51:27 13:54:46 19° 97° (E) 13:57:57 437.505
GONETS M04 07 Dec 13:55:52 14:00:46 17° 283° (WNW) 14:05:41
ITUPSAT 1 07 Dec 13:57:13 14:01:02 23° 95° (E) 14:04:50 437.325
RS-15 07 Dec 14:13:52 14:24:42 33° 34° (NE) 14:35:18 29.354- 29.394
BEESAT 2 07 Dec 14:15:03 14:19:05 76° 239° (WSW) 14:23:05 435.950
ISS 07 Dec 14:18:29 14:19:39 12° 128° (SE) 14:20:51 145.825
TISAT 1 07 Dec 14:25:11 14:28:49 28° 291° (WNW) 14:32:25 437.305
Gurwin Techsat 1B 07 Dec 14:38:07 14:41:18 16° 269° (W) 14:44:30 435.225
O/OREOS (USA 219) 07 Dec 14:58:20 15:02:20 31° 104° (ESE) 15:06:20 437.305
ITAMSAT 1 07 Dec 14:59:22 15:04:15 40° 261° (W) 15:09:10 435.822/435.867
SWISSCUBE 07 Dec 15:01:40 15:06:23 64° 286° (WNW) 15:11:03 437.505
BEESAT 07 Dec 15:05:32 15:10:16 66° 286° (WNW) 15:14:57 436.000
AUBIESAT-1 07 Dec 15:11:12 15:15:46 72° 290° (WNW) 15:20:07 437.475
AIST 2 07 Dec 15:18:57 15:21:36 16° 44° (NE) 15:24:14 435.215
M-CUBED/EXP-1 PRIME 07 Dec 15:24:58 15:29:23 42° 294° (WNW) 15:33:36 437.505
ITUPSAT 1 07 Dec 15:34:37 15:38:54 34° 291° (WNW) 15:43:10 437.325
AO-7 07 Dec 15:37:01 15:44:51 46° 259° (W) 15:52:46 29.400- 29.500
ISS 07 Dec 15:52:28 15:55:44 70° 324° (NW) 15:59:02 145.825
MOZHAYETS 4 07 Dec 15:57:38 16:02:11 73° 285° (WNW) 16:06:43
Cosmos 2491 07 Dec 16:02:43 16:07:25 15° 61° (ENE) 16:12:06 435.465 / 435.565
GOMX 1 07 Dec 16:04:11 16:07:31 20° 64° (ENE) 16:11:01 467.674
CUBESAT XI-V 07 Dec 16:05:27 16:08:46 19° 93° (E) 16:12:05 437.345
KKS-1 07 Dec 16:16:14 16:20:43 72° 102° (ESE) 16:25:10 437.445
STARS 07 Dec 16:18:02 16:22:02 33° 97° (E) 16:26:00 437.465
RS-15 07 Dec 16:26:34 16:39:01 89° 238° (WSW) 16:50:59 29.354- 29.394
HORYU 2 07 Dec 16:27:21 16:31:47 67° 75° (ENE) 16:36:15 437.375
LilacSat-2 07 Dec 16:29:23 16:31:44 16° 67° (ENE) 16:34:05 437.200
BRITE-PL 07 Dec 16:35:27 16:39:45 84° 258° (WSW) 16:44:23 437.365/2234.400
O/OREOS (USA 219) 07 Dec 16:37:57 16:41:43 25° 300° (WNW) 16:45:29 437.305
CUTE-I 07 Dec 16:45:04 16:49:45 32° 67° (ENE) 16:54:26 437.470
AIST 2 07 Dec 16:56:16 17:00:26 60° 242° (WSW) 17:04:35 435.215
NOAA 15 07 Dec 17:02:05 17:07:06 50° 71° (ENE) 17:12:09 137.62
NOAA 18 07 Dec 17:07:50 17:12:47 34° 67° (ENE) 17:17:45 137.9125
Cubesat XI-IV 07 Dec 17:10:55 17:16:08 54° 72° (ENE) 17:21:22 437.490
CINEMA 3 07 Dec 17:14:47 17:16:38 12° 61° (ENE) 17:18:29 145.822/145.860
ISS 07 Dec 17:30:38 17:32:43 16° 342° (NNW) 17:34:49 145.825
GOMX 1 07 Dec 17:40:53 17:45:13 42° 263° (W) 17:49:54 467.674
CUBESAT XI-V 07 Dec 17:41:55 17:46:17 41° 288° (WNW) 17:50:39 437.345
DOVE 4 07 Dec 17:42:09 17:46:56 82° 76° (ENE) 17:52:03 437.250
STARS 07 Dec 17:54:48 17:58:10 22° 293° (WNW) 18:01:32 437.465
KKS-1 07 Dec 17:55:15 17:56:39 11° 298° (WNW) 17:58:03 437.445
Cosmos 2491 07 Dec 17:57:01 18:05:46 79° 82° (E) 18:14:30 435.465 / 435.565
LilacSat-2 07 Dec 18:02:12 18:05:44 34° 262° (W) 18:09:16 437.200
HO-68 07 Dec 18:07:21 18:13:54 40° 65° (ENE) 18:20:28 435.675
HORYU 2 07 Dec 18:07:48 18:08:45 11° 270° (W) 18:09:43 437.375
PCSat 07 Dec 18:19:51 18:20:52 10° 38° (NE) 18:21:53 145.827
YUBILEINY 07 Dec 18:22:13 18:30:29 51° 89° (E) 18:38:49 435.215
CUTE-I 07 Dec 18:24:58 18:29:43 32° 264° (W) 18:34:29 437.470
Cosmos 2504 07 Dec 18:26:54 18:33:29 26° 81° (E) 18:40:19 435.465 / 435.565
CUTE 1.7 + AOD 2 07 Dec 18:27:18 18:31:04 33° 71° (ENE) 18:34:51 437.475
SO-50 07 Dec 18:38:38 18:42:22 23° 112° (ESE) 18:46:04 436.795
RS-15 07 Dec 18:41:14 18:49:44 23° 261° (W) 18:58:05 29.354- 29.394
NOAA 15 07 Dec 18:43:28 18:47:08 19° 267° (W) 18:50:49 137.62
AAUSAT CUBESAT 2 07 Dec 18:43:39 18:46:22 17° 67° (ENE) 18:49:05 437.432
CANX-2 07 Dec 18:45:13 18:49:23 63° 76° (ENE) 18:53:33 2200.000
STRAND 1 07 Dec 18:45:16 18:49:45 30° 96° (E) 18:54:11 437.568
CINEMA 3 07 Dec 18:48:03 18:52:59 83° 256° (WSW) 18:58:03 145.822/145.860
NOAA 18 07 Dec 18:48:32 18:53:23 31° 263° (W) 18:58:18 137.9125
Cubesat XI-IV 07 Dec 18:52:51 18:56:30 18° 267° (W) 19:00:10 437.490
CUBEBUG 2 07 Dec 18:55:14 18:59:23 31° 70° (ENE) 19:03:31 437.445
SEEDS 07 Dec 19:07:01 19:11:07 64° 76° (ENE) 19:15:16 437.485
ISS 07 Dec 19:09:46 19:10:20 10° 2° (N) 19:10:54 145.825
Oscar 11 07 Dec 19:11:58 19:14:25 15° 65° (ENE) 19:16:53 145.826/435.025
COMPASS 1 07 Dec 19:14:12 19:18:11 50° 74° (ENE) 19:22:11 437.405
DOVE 4 07 Dec 19:25:01 19:25:19 10° 274° (W) 19:25:37 437.250
AIST 1 07 Dec 19:30:57 19:35:15 81° 95° (E) 19:39:37
UWE-3 07 Dec 19:33:36 19:38:06 49° 73° (ENE) 19:42:32 435.000/436.395/437.385
CUSAT 1 07 Dec 19:39:44 19:43:24 39° 80° (E) 19:48:07 437.405
HO-68 07 Dec 19:55:01 20:01:34 38° 262° (W) 20:08:11 435.675
Cosmos 2491 07 Dec 19:55:45 20:01:31 20° 281° (W) 20:07:17 435.465 / 435.565
PCSat 07 Dec 20:00:06 20:05:29 57° 59° (ENE) 20:10:48 145.827
CUTE 1.7 + AOD 2 07 Dec 20:03:57 20:06:57 19° 266° (W) 20:09:59 437.475
ZACube-1 07 Dec 20:10:36 20:15:08 77° 75° (ENE) 20:19:38 437.345
FUNcube-1 07 Dec 20:17:15 20:21:47 83° 78° (ENE) 20:26:16 145.935
Cosmos 2504 07 Dec 20:17:46 20:26:03 65° 281° (W) 20:34:52 435.465 / 435.565
AAUSAT CUBESAT 2 07 Dec 20:17:47 20:21:33 36° 262° (W) 20:25:21 437.432
SO-50 07 Dec 20:18:05 20:22:36 41° 308° (NW) 20:27:04 436.795
YUBILEINY 07 Dec 20:19:52 20:27:31 34° 289° (WNW) 20:35:18 435.215
STRAND 1 07 Dec 20:24:26 20:28:50 30° 292° (WNW) 20:33:14 437.568
CUBEBUG 2 07 Dec 20:31:58 20:35:57 26° 265° (W) 20:39:56 437.445
DANDE 07 Dec 20:43:51 20:46:40 40° 80° (E) 20:50:08 436.750
ISS 07 Dec 20:45:22 20:47:52 19° 23° (NNE) 20:50:22 145.825
Oscar 11 07 Dec 20:45:59 20:50:09 47° 261° (W) 20:54:20 145.826/435.025
COMPASS 1 07 Dec 20:52:24 20:54:00 12° 269° (W) 20:55:36 437.405
DELFI C3 07 Dec 21:00:03 21:03:58 87° 78° (ENE) 21:07:54 145.870
UWE-3 07 Dec 21:11:59 21:14:46 16° 268° (W) 21:17:32 435.000/436.395/437.385
PRISM 07 Dec 21:20:52 21:25:04 89° 116° (ESE) 21:29:14 437.425
TIGRISAT 07 Dec 21:21:38 21:24:31 17° 93° (E) 21:27:20 435.000
HUMSAT D 07 Dec 21:22:32 21:26:45 81° 76° (ENE) 21:30:55 437.325/437.525
CUSAT 1 07 Dec 21:22:44 21:25:12 15° 266° (W) 21:28:02 437.405
ANTELSAT 07 Dec 21:23:23 21:26:31 19° 93° (E) 21:29:36 437.575/2403.000
ESTCUBE 1 07 Dec 21:32:13 21:34:46 15° 64° (ENE) 21:37:19 437.505/2401.250
PCSat 07 Dec 21:44:42 21:48:22 19° 255° (WSW) 21:52:01 145.827
CUBEBUG 1 07 Dec 21:52:00 21:54:23 15° 64° (ENE) 21:56:47 437.445
VELOX 1 07 Dec 22:07:38 22:10:07 15° 64° (ENE) 22:12:35 145.980
Cosmos 2504 07 Dec 22:18:11 22:21:26 12° 303° (WNW) 22:24:44 435.465 / 435.565
ISS 07 Dec 22:21:22 22:24:39 71° 221° (SW) 22:27:56 145.825
SPROUT 07 Dec 22:26:35 22:29:00 15° 65° (ENE) 22:31:26 437.525
UNISAT 6 07 Dec 22:27:38 22:32:02 77° 284° (WNW) 22:36:18 437.425
NANOSAT C BR1 07 Dec 22:41:50 22:43:54 13° 91° (E) 22:45:57 145.865
QB50P2 07 Dec 22:48:47 22:51:48 19° 94° (E) 22:54:49 145.880/145.840
POLYITAN 1 07 Dec 22:49:22 22:52:16 18° 93° (E) 22:55:09 437.675
TIGRISAT 07 Dec 22:57:18 23:01:22 38° 288° (WNW) 23:05:19 435.000
ANTELSAT 07 Dec 22:59:21 23:03:20 34° 289° (WNW) 23:07:13 437.575/2403.000
QB50P1 07 Dec 23:01:18 23:04:46 24° 95° (E) 23:08:12 145.935-145.965
DUCHIFAT 1 07 Dec 23:02:03 23:05:16 21° 94° (E) 23:08:27 145.980
GONETS M04 07 Dec 23:02:51 23:08:49 21° 80° (E) 23:14:47
AISAT 07 Dec 23:04:56 23:09:17 65° 75° (ENE) 23:13:42 437.250
ESTCUBE 1 07 Dec 23:06:47 23:11:08 51° 260° (W) 23:15:30 437.505/2401.250
50 SAT 07 Dec 23:12:54 23:16:20 59° 75° (ENE) 23:19:49 437.505
Cosmos 2499 07 Dec 23:13:12 23:20:09 29° 82° (E) 23:27:19 435.465 / 435.565
POPSAT HIP 1 07 Dec 23:22:36 23:26:38 41° 99° (E) 23:30:36 437.405
CUBEBUG 1 07 Dec 23:25:58 23:30:12 51° 260° (W) 23:34:30 437.445
PHONESAT 2.4 07 Dec 23:27:51 23:30:18 33° 157° (SSE) 23:32:45 2401.200-2431.200
JAS-2 07 Dec 23:31:55 23:37:09 78° 103° (ESE) 23:42:42 435.910
TISAT 1 07 Dec 23:41:15 23:43:52 16° 65° (ENE) 23:46:28 437.305
VELOX 1 07 Dec 23:41:49 23:46:07 51° 260° (W) 23:50:27 145.980
DX 1 07 Dec 23:48:24 23:52:45 82° 255° (WSW) 23:57:09 434.975-435.025
BUGSAT 1 07 Dec 23:50:43 23:54:18 27° 96° (E) 23:57:51 437.445
UKube-1 07 Dec 23:51:38 23:55:56 80° 76° (ENE) 00:00:17 .
SPROUT 08 Dec 00:00:20 00:04:30 48° 261° (W) 00:08:42 437.525
NANOSAT C BR1 08 Dec 00:15:48 00:19:53 47° 287° (WNW) 00:23:54 145.865
AO-85 08 Dec 00:22:08 00:25:42 20° 111° (ESE) 00:29:06 145.980
QB50P2 08 Dec 00:23:51 00:27:40 33° 289° (WNW) 00:31:28 145.880/145.840
AUBIESAT-1 08 Dec 00:24:00 00:25:49 12° 56° (ENE) 00:27:39 437.475
POLYITAN 1 08 Dec 00:24:18 00:28:09 35° 289° (WNW) 00:31:59 437.675
SWISSCUBE 08 Dec 00:31:53 00:34:26 14° 62° (ENE) 00:36:57 437.505
BEESAT 08 Dec 00:35:47 00:38:15 14° 62° (ENE) 00:40:43 436.000
M-CUBED/EXP-1 PRIME 08 Dec 00:36:28 00:39:34 20° 60° (ENE) 00:42:49 437.505
QB50P1 08 Dec 00:36:55 00:40:28 26° 291° (WNW) 00:43:59 145.935-145.965
DUCHIFAT 1 08 Dec 00:37:16 00:40:57 30° 290° (WNW) 00:44:37 145.980
AISAT 08 Dec 00:45:05 00:46:10 11° 270° (W) 00:47:15 437.250
GONETS M04 08 Dec 00:55:54 01:04:37 76° 278° (W) 01:13:21
POPSAT HIP 1 08 Dec 00:59:25 01:02:03 16° 295° (WNW) 01:04:39 437.405
Oscar 19 08 Dec 01:00:46 01:05:36 38° 98° (E) 01:10:25 437.125/150
PHONESAT 2.4 08 Dec 01:02:46 01:05:25 76° 354° (N) 01:08:04 2401.200-2431.200
ITUPSAT 1 08 Dec 01:03:07 01:07:02 26° 67° (ENE) 01:10:58 437.325
Cosmos 2499 08 Dec 01:04:08 01:12:35 62° 281° (W) 01:21:26 435.465 / 435.565
O/OREOS (USA 219) 08 Dec 01:08:42 01:13:05 50° 65° (ENE) 01:17:24 437.305
Gurwin Techsat 1B 08 Dec 01:13:25 01:17:48 26° 95° (E) 01:22:09 435.225
TISAT 1 08 Dec 01:15:04 01:19:07 43° 261° (W) 01:23:12 437.305
JAS-2 08 Dec 01:19:32 01:21:39 12° 299° (WNW) 01:23:48 435.910
BUGSAT 1 08 Dec 01:26:14 01:29:31 23° 292° (WNW) 01:32:46 437.445
AO-7 08 Dec 01:51:58 01:53:03 10° 87° (E) 01:54:07 29.400- 29.500
AUBIESAT-1 08 Dec 01:55:25 01:59:33 69° 255° (WSW) 02:03:58 437.475
AO-85 08 Dec 02:01:07 02:05:53 48° 305° (NW) 02:10:18 145.980
SWISSCUBE 08 Dec 02:06:58 02:11:40 62° 258° (WSW) 02:16:24 437.505
M-CUBED/EXP-1 PRIME 08 Dec 02:09:53 02:13:43 37° 258° (WSW) 02:17:50 437.505
BEESAT 08 Dec 02:10:45 02:15:29 63° 258° (WSW) 02:20:14 436.000
PHONESAT 2.4 08 Dec 02:38:02 02:40:42 85° 13° (NNE) 02:43:20 2401.200-2431.200
ITUPSAT 1 08 Dec 02:40:27 02:44:42 32° 263° (W) 02:49:00 437.325
Oscar 19 08 Dec 02:40:29 02:44:42 26° 294° (WNW) 02:48:55 437.125/150
O/OREOS (USA 219) 08 Dec 02:49:42 02:51:59 14° 261° (W) 02:54:17 437.305
Gurwin Techsat 1B 08 Dec 02:52:55 02:57:49 38° 291° (WNW) 03:02:41 435.225
MOZHAYETS 4 08 Dec 02:58:10 03:02:46 86° 256° (WSW) 03:07:22
GONETS M04 08 Dec 02:58:38 03:03:01 14° 300° (WNW) 03:07:25
Cosmos 2499 08 Dec 03:04:51 03:07:46 12° 303° (WNW) 03:10:42 435.465 / 435.565
CUBESAT XI-V 08 Dec 03:08:25 03:11:23 17° 65° (ENE) 03:14:22 437.345
SO-50 08 Dec 03:10:37 03:13:45 18° 44° (NE) 03:16:52 436.795
ITAMSAT 1 08 Dec 03:12:39 03:17:51 76° 103° (ESE) 03:23:01 435.822/435.867
KKS-1 08 Dec 03:13:01 03:17:24 58° 74° (ENE) 03:21:49 437.445
STARS 08 Dec 03:13:47 03:17:30 27° 68° (ENE) 03:21:16 437.465
BEESAT 3 08 Dec 03:32:41 03:35:37 21° 112° (ESE) 03:38:36 437.485
AO-7 08 Dec 03:38:52 03:47:14 66° 105° (ESE) 03:55:32 29.400- 29.500
BEESAT 2 08 Dec 04:06:22 04:09:25 22° 112° (ESE) 04:12:31 435.950
PHONESAT 2.4 08 Dec 04:13:28 04:15:44 25° 205° (SSW) 04:17:59 2401.200-2431.200
HORYU 2 08 Dec 04:20:54 04:23:01 13° 92° (E) 04:25:07 437.375
YUBILEINY 08 Dec 04:33:58 04:40:47 24° 67° (ENE) 04:47:34 435.215
BRITE-PL 08 Dec 04:40:08 04:45:16 38° 97° (E) 04:50:31 437.365/2234.400
CUBESAT XI-V 08 Dec 04:43:59 04:48:23 46° 261° (W) 04:52:49 437.345
RS-15 08 Dec 04:44:13 04:48:50 13° 94° (E) 04:53:29 29.354- 29.394
STARS 08 Dec 04:50:03 04:53:47 26° 264° (W) 04:57:32 437.465
SO-50 08 Dec 04:50:10 04:54:36 57° 242° (WSW) 04:58:56 436.795
KKS-1 08 Dec 04:52:27 04:54:18 12° 269° (W) 04:56:12 437.445
ITAMSAT 1 08 Dec 04:54:10 04:56:38 14° 300° (WNW) 04:59:08 435.822/435.867
